OPS 4682 DEB, 38459

Orbit data source: Space-Track

OPS 4682 DEB, 38459 is space debris in LEO originally from a launch on Sat, 03 Apr 1965 UTC launched from the Air Force Western Test Range (AFWTR). Debris objects in space refer to the collection of defunct objects orbiting the Earth. Examples of debris include non-operational satellites, rocket bodies, and fragments generated from explosions, collisions, or faulty payload assembly.

Loading next visibility...
Identifier
38459, 1965-027FQ
Orbit
LEO
Country
Flag of USUS
Related business
Manufacturer
Unknown
Mission
Spacecraft
Bus & Motor
Unknown
Mass
Unknown
Launch date (UTC)
1965-04-03 (61 years ago)
Launch vehicle
Unknown
Launch site
Air Force Western Test Range (AFWTR)
Object type
Payload
Rocket body
Debris
Shape & HBR
Unknown shape, 0.1 m
Radar Cross Section
Small (<0.1 m²)

Expand to show TLE details & history
Last TLE update: 22 hours ago

TLE from 22 hours ago
0 OPS 4682 DEB
1 38459U 65027FQ  25349.29361228  .00000128  00000-0  44245-3 0  9998
2 38459  90.2353   2.1085 0030222  49.6994 310.6759 12.92880345524722
Epoch: 2025-12-15T07:02Z
TLE epoch observation values (Epoch: 2025-12-15T07:02:48.100Z)
Latitude
0.00004°
Longitude
172.21383°
Altitude
1,277.916 km
Speed
7.224 km/s
True Right ascension
00h 08m 26s
True Declination
0° 00' 00"
Sunlit
Object was in daylight at epoch
Visualization orbit readout
Latitude
Unknown
Longitude
Unknown
Altitude
Unknown
Speed
Unknown
Apparent Right ascension
Unknown
Apparent Declination
Unknown
Sunlit
N/A
Visualization observer readout
Local Sidereal Time
03:26:41
Azimuth
Unknown
Elevation
Unknown
Doppler factor
Unknown
Orbital elements
Apogee altitude
1,310.414 km
Perigee altitude
1,264.081 km
Semi-major axis
7,665.384 km
Eccentricity
0.00302
Inclination
90.2353°
RAAN
2.1085°
Arg. of periapsis
49.6994°
True anomaly
310.4126°
Mean anomaly
310.6759°
Eccentric anomaly
310.54432°
Mean motion
3.23402 °/min
Orbital period
111.32 mins
BSTAR
0.00044245
Loading maneuver chart data...
Computing Atmospheric mass density...
Loading historical data...
Loading historical data...
Loading historical data...
Loading historical data...
Loading historical data...
Loading historical data...
Loading historical data...

Documentation

Showing up to 5 results
|